Location: Lane
(33.5226°N, 79.8788°W)
Time: 03:42:10
(UTC+00:00)

Tiros 1 despin weight - Pass Details

Date: 06 October 2022
Orbit: 590 x 637 km, 48.2° (Epoch: 30 November)

Event Time Altitude Azimuth Distance (km) Brightness Sun altitude
Rises 17:23:20 0° 182° (S) 2,800 ? 51.0°
Reaches altitude 10° 17:26:57 10° 151° (SSE) 1,910 ? 50.9°
Maximum altitude 17:28:37 12° 128° (SE) 1,786 ? 50.9°
Drops below altitude 10° 17:30:18 10° 105° (ESE) 1,921 ? 50.8°
Sets 17:33:58 0° 74° (ENE) 2,837 ? 50.7°
